This is the latest recevied weather packets stored in our database for station/object F4IEI-10. If no packets are shown the sender has not sent any weather packets the latest 1 day(s).
| Time | Temp. | Humidity | Pressure | Rain* | Wind** | Luminosity | Snow |
|---|---|---|---|---|---|---|---|
| 1778078627 | 11.67° C | 89% | 1011.4 hPa | - | - | - | - |
| 1778071422 | 12.22° C | 89% | 1011 hPa | - | - | - | - |
| 1778069622 | 12.22° C | 86% | 1010.9 hPa | - | - | - | - |
| 1778068729 | 12.22° C | 88% | 1010.8 hPa | - | - | - | - |
| 1778067822 | 11.11° C | 92% | 1010.9 hPa | - | - | - | - |
| 1778066922 | 10.56° C | 92% | 1010.8 hPa | - | - | - | - |
| 1778066022 | 11.11° C | 89% | 1010.8 hPa | - | - | - | - |
| 1778065122 | 11.11° C | 92% | 1010.8 hPa | - | - | - | - |
| 1778064222 | 11.11° C | 90% | 1010.9 hPa | - | - | - | - |
| 1778063326 | 11.11° C | 89% | 1011 hPa | - | - | - | - |
| 1778062425 | 11.11° C | 88% | 1011 hPa | - | - | - | - |
| 1778061525 | 11.11° C | 91% | 1011.2 hPa | - | - | - | - |
| 1778060625 | 10.56° C | 93% | 1011.2 hPa | - | - | - | - |
| 1778059725 | 11.11° C | 95% | 1011.1 hPa | - | - | - | - |
| 1778058825 | 11.67° C | 94% | 1010.9 hPa | - | - | - | - |
| 1778057925 | 12.22° C | 98% | 1010.8 hPa | - | - | - | - |
| 1778057025 | 11.11° C | 98% | 1010.8 hPa | - | - | - | - |
| 1778055225 | 10° C | 100% | 1010.4 hPa | - | - | - | - |
| 1778054325 | 10° C | 100% | 1010.4 hPa | - | - | - | - |
| 1778053432 | 9.44° C | 100% | 1010.5 hPa | - | - | - | - |
| 1778052525 | 9.44° C | 100% | 1010.4 hPa | - | - | - | - |
| 1778051625 | 8.89° C | 100% | 1010.3 hPa | - | - | - | - |
| 1778050725 | 8.89° C | 100% | 1010 hPa | - | - | - | - |
| 1778049825 | 8.33° C | 100% | 1009.8 hPa | - | - | - | - |
| 1778048025 | 8.33° C | 100% | 1009.6 hPa | - | - | - | - |
* Rain since midnight (hover to see other rain measurements)
** Current wind speed in m/s (hover to see current wind gust speed)